Location: Tamazert
(32.6352°N, 5.2072°W)
Time: 17:04:56
(UTC+00:00)

Vanguard 3 - Pass Details

Date: 03 October 2022
Orbit: 509 x 3255 km, 33.3° (Epoch: 08 December)

Event Time Altitude Azimuth Distance (km) Brightness Sun altitude
Rises 09:21:08 0° 259° (WSW) 2,724 9.5 35.8°
Reaches altitude 10° 09:23:01 10° 258° (WSW) 1,945 8.9 36.1°
Maximum altitude 09:27:20 87° 169° (SSE) 778 7.8 36.8°
Drops below altitude 10° 09:34:18 10° 82° (E) 3,086 10.8 38.0°
Sets 09:38:00 0° 82° (E) 4,499 11.5 38.6°
